Location: Newark
(34.1333°N, 7.9667°W)
Time: 04:00:38
(UTC+00:00)

UKube-1 - Pass Details

Date: 19 June 2023
Orbit: 598 x 602 km, 98.3° (Epoch: 28 September)

Event Time Altitude Azimuth Distance (km) Brightness Sun altitude
Rises 00:18:11 0° 6° (N) 2,849 ? -32.3°
Reaches altitude 10° 00:20:24 10° 1° (N) 1,942 ? -32.4°
Enters shadow 00:22:24 26° 350° (N) 1,187 ? -32.4°
